Temperature
13 13 13 13 13 14 14 14 14 14 14 14 14 14 14 14 15 15 15 15 15 15 15 15 15 15 15 15 15 15 15 15 15 15 15 15 15 15 15 15 15 15 15
12 13 13 13 13 13 14 14 14 14 14 14 14 14 14 14 15 15 15 15 15 15 15 15 15 15 15 15 15 15 15 15 15 15 15 15 15 15 15 15 15 15 15
12 13 13 13 13 13 13 14 14 14 14 14 14 14 14 14 14 14 14 14 14 15 15 15 15 15 15 15 15 15 15 15 15 15 15 15 15 15 15 15 15 15 15
12 12 12 13 13 13 13 13 13 14 14 14 14 14 14 14 14 14 14 14 14 14 14 15 15 15 15 15 15 15 15 15 15 15 14 14 14 14 15 14 14 15 15
12 12 12 13 13 13 13 13 13 13 13 13 14 14 14 14 14 14 14 14 14 14 14 14 15 14 14 15 15 15 15 15 15 14 14 14 14 14 14 14 14 14 14
12 12 12 12 12 13 13 13 13 13 13 13 13 13 13 13 13 14 14 14 14 14 14 14 14 14 14 14 14 14 15 15 14 14 14 14 14 14 14 14 14 14 14
11 11 12 12 12 12 12 13 13 13 13 13 13 13 13 13 13 13 13 13 13 13 14 14 14 14 14 14 14 14 14 14 14 14 13 13 14 14 14 14 14 14 14
11 11 11 12 12 12 12 12 12 12 12 12 13 13 13 13 13 13 13 13 13 13 13 13 13 14 14 14 14 14 14 14 14 13 13 13 13 13 13 13 13 13 13
11 11 11 11 11 12 12 12 12 12 12 12 12 12 12 13 13 13 13 13 13 13 13 13 13 13 13 13 13 13 13 13 13 13 13 13 13 13 13 13 13 13 13
11 11 11 11 11 11 11 11 12 12 12 12 12 12 12 12 12 12 12 12 12 12 12 13 13 13 13 13 13 13 13 13 13 13 13 13 13 13 13 13 13 13 13
10 10 10 10 11 11 11 11 11 11 11 11 11 12 12 12 12 12 12 12 12 12 12 12 12 12 12 12 12 12 12 12 12 12 12 12 13 13 13 13 13 13 13
10 10 10 10 10 10 11 11 11 11 11 11 11 11 11 11 11 11 11 11 11 11 12 12 12 12 12 12 12 12 12 12 12 12 12 12 12 12 12 12 12 12 12
9 9 9 10 10 10 10 10 10 10 10 10 10 10 10 10 11 11 11 11 11 11 11 11 11 11 11 11 11 11 11 11 11 11 11 12 12 12 12 12 12 12 12
9 9 9 9 9 9 10 10 10 10 10 10 10 10 10 10 10 10 10 10 10 10 10 10 10 10 10 10 10 10 10 10 10 11 11 11 11 11 11 11 11 11 11
8 8 8 8 9 9 9 9 9 9 9 9 9 9 9 9 9 9 9 9 9 9 9 9 9 9 9 9 10 10 10 10 10 10 10 11 11 11 11 11 11 11 11
8 8 8 8 8 8 8 8 8 8 8 8 9 8 8 9 9 9 9 9 9 9 9 9 9 9 9 9 9 9 9 9 9 10 10 10 10 10 10 10 10 10 10
7 7 7 7 8 8 8 8 8 8 8 8 8 8 8 8 8 8 8 8 8 8 8 8 8 8 8 8 8 8 9 9 9 9 9 9 9 9 10 10 9 9 10
6 7 7 7 7 7 7 7 7 7 7 7 7 7 7 7 7 7 7 7 7 7 7 7 7 7 7 7 7 8 8 8 8 9 9 9 9 9 9 9 9 9 9
6 6 6 6 6 6 6 6 6 6 6 6 6 6 6 6 6 7 6 6 6 7 7 6 7 7 7 7 7 7 7 7 8 8 8 8 8 8 8 8 8 9 9
6 6 6 6 6 6 6 6 6 5 5 5 5 5 6 6 6 6 6 6 6 6 6 6 6 6 6 6 6 6 7 7 7 7 7 8 8 8 8 8 8 8 8
5 5 5 5 5 5 5 5 5 5 5 5 5 5 5 5 5 5 5 5 5 5 5 5 5 5 5 5 5 5 6 6 6 7 7 7 7 7 7 7 8 8 8
4 5 5 5 5 5 4 4 4 4 4 4 4 4 4 4 4 4 4 4 4 4 4 4 4 4 4 4 4 4 5 5 5 6 6 6 6 7 7 7 7 7 7
4 4 4 4 4 4 4 4 4 4 3 3 3 3 3 3 3 3 3 3 3 3 4 4 3 3 4 4 4 4 4 5 5 5 5 5 6 6 6 6 6 6 7
4 4 4 4 4 4 3 3 3 3 3 3 3 3 3 3 2 3 2 3 3 3 3 3 3 3 3 3 3 3 4 4 4 4 4 5 5 5 5 5 5 6 6
3 3 3 3 3 3 3 3 2 2 2 2 2 2 2 2 2 2 2 2 2 2 2 2 2 2 2 2 3 3 3 3 3 3 4 4 4 4 4 4 5 5 5
3 3 3 3 3 3 2 2 2 2 2 2 2 1 2 2 2 1 1 1 1 2 2 2 2 2 2 2 2 2 2 2 2 3 2 3 3 3 4 4 4 4 4
Wind_Speed
2 3 5 5 5 7 8 9 9 9 9 9 9 9 9 9 8 8 9 9 8 7 7 7 7 7 8 8 8 9 9 9 9 9 9 9 10 10 9 8 8 9 10
2 3 5 5 6 7 8 9 9 9 9 9 10 9 10 10 10 10 9 10 10 9 8 8 8 7 7 7 8 8 8 8 8 7 7 8 8 8 8 7 6 7 8
3 3 4 6 7 8 8 9 9 10 10 10 10 10 10 10 10 10 11 10 11 10 9 9 9 8 7 7 7 7 7 6 6 5 4 5 7 7 7 6 7 7 7
3 4 4 6 7 8 9 9 9 10 10 9 10 10 10 10 10 10 11 10 11 10 10 10 9 9 8 7 7 6 6 5 4 2 3 4 5 6 6 6 6 6 6
4 4 5 7 7 8 8 9 9 9 9 9 9 9 10 10 10 10 10 10 10 10 10 10 9 9 8 8 7 6 5 5 2 2 2 3 4 5 5 5 5 5 5
4 4 5 7 7 8 8 8 9 8 8 8 8 9 9 9 9 9 9 9 10 10 10 10 9 9 8 8 7 7 6 4 1 2 2 2 3 4 4 4 4 5 5
4 4 5 7 7 7 7 7 8 8 8 7 7 8 8 8 9 9 9 9 9 9 9 9 9 8 8 8 7 6 5 4 2 2 2 2 3 3 3 3 3 4 5
4 4 5 6 7 7 6 7 7 7 7 7 7 7 7 8 8 9 9 9 8 8 8 8 8 7 7 7 7 6 5 4 2 2 1 2 2 1 2 2 3 3 4
5 4 5 5 5 6 7 7 6 7 7 7 7 7 7 7 7 8 9 8 8 8 8 8 8 7 7 6 6 6 6 5 3 3 2 2 2 0 1 2 2 3 3
5 5 5 5 4 4 4 6 7 7 7 7 7 7 7 6 7 7 7 8 8 7 7 7 7 7 6 5 5 5 4 3 3 3 2 3 3 1 0 0 1 2 3
5 5 5 5 5 4 4 5 5 6 6 6 6 6 5 4 4 5 7 8 8 7 7 7 7 6 5 4 4 4 3 2 2 2 2 4 3 2 1 1 2 2 3
4 4 5 5 5 4 3 3 4 4 5 5 5 5 4 4 4 4 6 7 7 7 7 7 6 5 4 3 3 2 2 3 2 2 3 3 3 3 2 2 3 3 3
2 4 4 5 5 4 3 3 3 3 4 4 6 5 4 4 4 4 3 4 4 4 4 4 4 4 4 3 3 3 3 3 2 2 3 4 3 3 3 3 3 3 4
2 3 4 4 4 4 3 3 3 3 3 4 5 6 4 3 3 3 3 3 3 3 3 3 3 4 4 4 3 3 3 3 3 2 3 4 4 3 3 3 3 3 3
2 3 3 4 4 4 3 3 3 3 3 4 4 5 5 4 3 3 3 3 3 3 3 3 3 3 3 3 4 4 3 3 3 3 2 4 4 4 3 3 3 3 3
2 2 3 3 4 4 3 3 3 3 3 3 4 4 5 5 4 3 2 3 3 3 3 3 3 2 2 2 3 4 4 3 3 3 3 3 4 4 3 3 2 2 2
2 2 2 3 4 3 3 3 3 3 3 3 3 4 4 5 4 4 3 2 3 3 3 2 2 2 2 2 3 3 3 4 4 4 3 3 3 3 4 4 3 2 2
2 2 2 2 3 3 3 2 3 3 3 3 3 3 4 4 4 3 3 3 4 3 2 2 2 2 2 2 2 3 2 3 4 4 4 3 3 2 3 4 4 3 2
2 2 2 2 2 2 2 2 2 3 3 3 3 4 4 5 5 4 3 4 4 3 2 2 2 2 2 2 2 2 2 2 3 3 3 3 3 3 2 3 4 5 3
2 2 2 2 2 2 2 1 2 2 3 3 3 4 4 4 5 4 3 4 3 2 2 2 2 2 1 2 2 3 3 2 2 2 2 2 3 3 2 2 2 3 3
2 2 2 2 2 2 1 2 2 2 2 3 3 4 4 4 4 4 3 3 3 2 2 2 2 2 1 2 2 2 2 1 1 1 2 2 2 3 3 3 2 2 2
1 2 2 2 2 2 1 2 2 2 2 2 2 3 4 4 4 4 4 3 3 2 2 2 2 2 2 2 2 2 2 2 1 1 2 2 2 2 3 3 3 2 3
2 2 2 2 2 2 1 1 1 1 1 2 2 3 4 4 4 4 4 3 3 2 2 2 3 3 2 2 2 2 2 2 2 2 1 1 1 1 2 3 3 3 3
2 2 2 2 2 2 1 1 1 2 2 3 3 3 3 4 4 4 4 3 3 2 2 2 2 3 3 2 2 2 3 3 3 2 2 1 2 2 3 2 2 3 3
2 2 2 2 2 2 2 2 2 2 2 2 2 3 3 3 4 4 4 3 3 2 2 3 3 3 2 2 2 2 3 3 3 3 4 3 3 3 3 3 2 3 4
1 1 2 2 2 2 2 2 2 2 3 3 3 3 3 3 3 4 4 4 4 3 3 3 3 3 3 2 2 2 2 3 3 3 4 4 4 3 3 3 3 2 3
Wind_Direction
31 14 23 27 44 46 47 50 54 60 61 64 64 63 61 61 61 58 57 57 63 76 82 84 85 86 85 85 87 90 88 86 86 89 93 95 96 96 96 99 104 102 99
13 29 49 43 50 51 52 54 57 60 62 64 64 61 59 59 59 59 59 60 62 71 77 77 74 76 80 82 82 86 89 88 88 89 97 102 101 100 100 93 90 98 104
39 54 65 48 53 55 55 59 60 60 61 63 63 61 60 60 61 60 60 60 59 61 68 74 73 70 76 82 83 83 83 87 90 97 111 108 104 104 106 105 105 106 108
50 59 60 53 57 59 59 60 60 58 59 60 62 61 60 61 61 60 59 59 60 60 61 67 71 68 70 71 75 80 81 82 82 108 115 101 103 105 110 113 115 115 116
61 60 57 53 56 60 62 62 61 59 57 58 61 59 58 59 60 59 59 61 61 59 59 59 64 66 63 63 66 73 77 78 77 114 104 100 100 105 111 115 119 119 116
67 60 62 52 53 57 61 62 61 61 62 63 62 60 58 59 59 59 58 59 59 59 59 56 58 61 59 56 59 65 67 67 96 107 104 108 108 106 119 117 118 120 121
65 57 62 52 50 53 57 59 58 60 63 66 66 63 58 57 56 57 57 59 57 57 59 58 57 59 57 54 53 57 54 38 45 77 102 107 102 105 133 137 133 130 133
62 53 59 55 51 49 52 56 56 56 58 62 64 65 61 57 56 57 56 56 54 54 56 55 54 57 56 52 48 45 39 24 42 56 83 107 93 112 154 159 156 144 142
60 53 50 52 56 51 50 50 54 52 55 58 58 61 60 58 55 55 52 52 52 53 53 51 50 51 51 47 45 41 37 18 28 45 48 63 48 1 219 190 180 177 165
54 46 40 43 44 45 52 50 47 46 48 52 53 51 56 58 55 53 50 47 47 50 52 49 46 45 45 44 41 34 26 11 38 37 37 46 24 353 284 224 206 205 197
45 38 30 31 33 33 38 46 44 40 40 46 50 49 53 52 53 54 51 49 47 46 47 47 44 38 38 48 43 27 7 10 9 24 36 29 3 340 297 274 253 235 217
33 27 25 22 20 25 29 38 39 32 30 31 30 32 32 37 40 47 56 49 46 44 45 42 35 29 19 31 32 10 6 2 1 15 21 7 343 329 310 288 272 252 229
32 24 18 15 13 15 18 19 28 30 24 23 24 16 20 34 40 38 39 44 41 37 35 30 27 22 17 11 359 359 357 354 359 4 10 1 340 319 300 297 285 265 242
34 19 11 10 6 5 9 16 21 27 26 24 19 13 12 22 23 22 17 13 15 17 13 11 13 17 10 6 3 0 358 353 348 351 6 2 345 322 296 289 290 283 257
30 17 10 6 3 2 7 16 23 26 27 31 27 17 12 13 9 9 9 6 5 4 0 357 358 9 5 3 6 1 355 348 338 334 351 9 351 333 309 296 287 285 269
18 11 8 8 3 4 6 10 20 26 24 30 28 20 19 15 4 358 0 360 358 353 349 346 348 356 356 356 359 0 355 347 347 341 332 357 9 1 351 342 316 294 288
7 5 12 11 7 7 9 12 23 28 26 24 21 17 20 13 0 357 348 349 352 347 343 346 348 352 350 350 354 357 358 357 352 343 335 334 351 13 10 4 356 336 327
4 2 12 15 13 14 16 19 24 28 32 27 23 18 16 9 359 355 351 346 342 339 339 340 331 335 335 336 339 346 352 357 354 352 351 348 351 359 21 18 16 8 359
3 359 9 14 14 16 15 23 33 32 31 29 28 23 11 5 359 357 350 346 335 332 333 331 324 322 322 328 328 331 333 335 349 358 3 3 4 2 9 32 29 11 356
12 3 2 10 10 10 11 15 24 29 23 23 23 19 11 3 358 358 353 342 337 331 333 328 324 326 318 323 324 321 316 320 339 352 352 6 9 5 1 8 21 20 8
8 357 354 360 2 6 353 335 338 352 357 6 13 8 4 1 354 356 350 339 335 324 324 322 318 308 320 316 300 308 299 296 323 342 351 355 15 18 12 6 17 13 13
334 327 329 339 345 348 337 316 316 321 325 342 355 359 359 356 354 350 349 335 332 327 331 329 321 295 299 304 282 280 272 253 236 329 337 349 359 25 21 9 6 4 360
308 312 313 321 323 325 326 319 328 321 318 328 343 346 350 349 351 347 343 340 335 332 322 322 310 296 280 295 304 277 265 261 304 265 299 318 333 342 352 8 359 353 350
294 311 310 307 314 317 307 284 293 299 307 316 316 317 330 343 349 347 337 336 327 323 314 306 303 293 277 276 297 295 291 289 276 278 266 297 316 318 321 330 344 343 341
298 312 310 302 308 310 298 281 273 282 296 303 304 308 321 333 343 344 337 334 321 313 306 303 301 291 276 272 282 286 282 287 276 272 280 284 288 295 303 305 316 329 334
309 318 309 301 300 297 289 280 273 279 289 295 302 307 311 315 324 332 330 324 316 312 302 293 289 282 276 270 274 278 272 269 274 276 280 282 289 297 298 294 297 311 321
Height
1532 1532 1531 1531 1531 1531 1530 1529 1529 1529 1529 1529 1529 1529 1529 1528 1528 1528 1527 1527 1526 1527 1527 1528 1528 1528 1528 1528 1528 1528 1528 1528 1528 1528 1528 1528 1528 1528 1528 1529 1529 1529 1529
1532 1532 1531 1531 1531 1531 1531 1530 1530 1529 1529 1529 1529 1529 1529 1529 1528 1528 1528 1528 1527 1527 1528 1528 1528 1528 1528 1528 1528 1528 1528 1529 1529 1529 1529 1529 1529 1529 1529 1529 1529 1530 1530
1532 1532 1532 1532 1532 1531 1531 1531 1530 1530 1530 1530 1530 1529 1529 1529 1529 1528 1528 1528 1528 1528 1528 1528 1528 1528 1528 1528 1528 1528 1529 1529 1529 1529 1529 1530 1529 1529 1529 1530 1530 1530 1530
1532 1533 1532 1532 1532 1532 1532 1531 1531 1530 1530 1530 1530 1530 1529 1529 1529 1529 1528 1528 1528 1529 1528 1528 1528 1528 1528 1528 1528 1528 1529 1529 1529 1529 1530 1530 1530 1530 1530 1530 1530 1530 1530
1533 1533 1533 1533 1533 1532 1532 1532 1531 1531 1531 1530 1530 1530 1529 1529 1529 1529 1529 1529 1528 1528 1528 1528 1528 1528 1528 1528 1528 1528 1528 1529 1529 1529 1529 1530 1530 1530 1530 1530 1530 1530 1530
1533 1533 1533 1533 1533 1533 1532 1532 1532 1531 1531 1531 1530 1530 1529 1529 1529 1529 1528 1528 1528 1528 1528 1527 1527 1527 1527 1527 1527 1528 1528 1528 1528 1529 1529 1529 1529 1529 1529 1529 1530 1530 1530
1533 1533 1533 1533 1533 1533 1532 1532 1532 1531 1531 1530 1530 1530 1529 1529 1528 1528 1528 1528 1528 1528 1528 1527 1527 1527 1527 1527 1527 1527 1527 1527 1528 1528 1528 1528 1528 1529 1529 1529 1529 1529 1530
1533 1533 1533 1533 1533 1532 1532 1532 1532 1531 1531 1530 1530 1529 1529 1529 1528 1528 1528 1527 1527 1527 1527 1527 1526 1526 1526 1526 1526 1526 1526 1526 1527 1527 1527 1527 1527 1528 1528 1528 1528 1529 1529
1533 1533 1533 1533 1532 1532 1531 1531 1531 1531 1530 1530 1529 1529 1528 1528 1528 1527 1527 1527 1527 1526 1526 1526 1526 1525 1525 1525 1525 1525 1525 1525 1526 1526 1526 1526 1526 1527 1527 1527 1527 1528 1528
1532 1532 1532 1532 1532 1531 1531 1531 1530 1530 1530 1529 1529 1528 1528 1527 1527 1526 1526 1526 1525 1525 1525 1525 1524 1524 1524 1524 1523 1523 1524 1524 1524 1524 1524 1524 1525 1525 1525 1525 1526 1527 1527
1531 1531 1531 1531 1531 1531 1530 1530 1530 1529 1529 1528 1528 1527 1527 1526 1526 1525 1525 1525 1524 1524 1524 1523 1523 1523 1522 1522 1522 1522 1522 1522 1522 1522 1522 1523 1523 1524 1524 1524 1525 1525 1525
1530 1530 1530 1530 1530 1530 1529 1529 1529 1528 1528 1527 1527 1526 1526 1525 1524 1524 1524 1523 1523 1523 1522 1522 1521 1521 1520 1520 1520 1520 1520 1520 1520 1520 1520 1520 1521 1521 1522 1522 1523 1523 1523
1530 1529 1529 1529 1529 1528 1528 1528 1527 1526 1526 1526 1525 1525 1524 1524 1523 1523 1522 1522 1521 1521 1520 1520 1520 1519 1518 1518 1518 1518 1518 1518 1518 1518 1518 1518 1518 1519 1519 1520 1520 1521 1521
1529 1528 1528 1528 1527 1527 1526 1526 1525 1525 1524 1524 1523 1523 1523 1522 1521 1521 1520 1520 1519 1519 1518 1518 1517 1517 1516 1516 1516 1516 1516 1516 1516 1516 1516 1516 1516 1516 1516 1517 1517 1518 1518
1527 1527 1527 1526 1526 1525 1525 1524 1523 1523 1522 1522 1521 1521 1521 1520 1520 1519 1518 1518 1518 1517 1516 1516 1515 1515 1514 1514 1514 1513 1513 1513 1513 1514 1513 1514 1513 1514 1514 1514 1515 1515 1515
1526 1526 1525 1525 1524 1523 1523 1522 1521 1521 1521 1520 1519 1519 1518 1518 1517 1517 1516 1516 1515 1515 1514 1514 1514 1513 1512 1512 1512 1511 1511 1511 1511 1511 1511 1511 1511 1511 1511 1511 1512 1512 1512
1524 1524 1523 1523 1522 1521 1521 1520 1519 1519 1518 1518 1517 1516 1516 1516 1515 1515 1514 1514 1513 1512 1512 1512 1511 1511 1510 1510 1509 1509 1508 1508 1508 1508 1508 1508 1508 1508 1508 1509 1509 1509 1509
1523 1522 1522 1521 1520 1519 1519 1518 1517 1517 1516 1515 1515 1514 1514 1513 1513 1512 1512 1511 1511 1510 1510 1509 1509 1508 1508 1508 1507 1506 1506 1505 1505 1505 1505 1505 1505 1505 1506 1506 1506 1506 1506
1521 1520 1520 1519 1518 1518 1517 1516 1515 1514 1514 1513 1513 1512 1511 1511 1510 1510 1509 1508 1508 1507 1507 1507 1506 1506 1505 1505 1505 1504 1503 1503 1503 1503 1503 1502 1502 1503 1503 1503 1503 1503 1503
1519 1519 1518 1517 1516 1516 1515 1515 1514 1513 1512 1511 1510 1509 1509 1508 1508 1507 1506 1506 1505 1505 1504 1504 1503 1503 1503 1503 1502 1501 1501 1500 1500 1500 1500 1500 1500 1500 1500 1500 1500 1500 1500
1517 1516 1516 1515 1514 1514 1513 1512 1512 1511 1510 1509 1508 1507 1506 1506 1505 1504 1504 1503 1503 1502 1501 1501 1501 1500 1500 1500 1500 1499 1498 1498 1497 1498 1498 1497 1497 1497 1497 1497 1497 1497 1497
1515 1514 1514 1513 1512 1512 1511 1511 1510 1509 1508 1507 1506 1505 1504 1503 1502 1501 1501 1500 1499 1499 1499 1498 1498 1498 1497 1498 1498 1497 1497 1497 1495 1495 1495 1494 1494 1494 1494 1494 1494 1493 1493
1513 1512 1511 1510 1510 1510 1509 1508 1508 1507 1506 1505 1504 1502 1501 1501 1500 1499 1498 1497 1496 1496 1496 1495 1495 1495 1495 1496 1496 1497 1496 1495 1494 1493 1492 1492 1492 1491 1491 1491 1490 1490 1490
1510 1510 1509 1508 1508 1507 1506 1506 1505 1504 1503 1502 1501 1500 1499 1498 1497 1496 1495 1495 1494 1494 1493 1493 1493 1493 1493 1493 1493 1493 1494 1493 1493 1491 1490 1490 1489 1489 1488 1488 1487 1487 1487
1507 1507 1506 1506 1505 1504 1504 1503 1502 1502 1501 1500 1499 1497 1496 1496 1495 1494 1493 1492 1492 1491 1491 1490 1490 1490 1490 1490 1490 1490 1490 1490 1490 1490 1488 1487 1486 1486 1485 1485 1484 1483 1483
1505 1504 1504 1503 1502 1502 1501 1500 1500 1499 1498 1497 1496 1495 1494 1493 1492 1491 1490 1490 1489 1489 1488 1488 1488 1488 1488 1488 1488 1488 1488 1488 1488 1487 1486 1485 1484 1483 1482 1482 1481 1480 1480